TimeEDT,TemperatureF,Dew PointF,Humidity,Sea Level PressureIn,VisibilityMPH,Wind Direction,Wind SpeedMPH,Gust SpeedMPH,PrecipitationIn,Events,Conditions,WindDirDegrees,DateUTC
12:55 AM,28.0,16.0,61,30.48,10.0,SE,3.5,-,N/A,,Clear,140,2013-04-21 04:55:00
1:55 AM,27.0,16.0,63,30.48,10.0,ESE,4.6,-,N/A,,Clear,110,2013-04-21 05:55:00
2:55 AM,26.1,18.0,71,30.50,10.0,Calm,Calm,-,N/A,,Clear,0,2013-04-21 06:55:00
3:55 AM,25.0,18.0,75,30.51,10.0,East,3.5,-,N/A,,Clear,100,2013-04-21 07:55:00
4:55 AM,24.1,17.1,75,30.53,10.0,Calm,Calm,-,N/A,,Clear,0,2013-04-21 08:55:00
5:55 AM,24.1,17.1,75,30.55,10.0,ESE,3.5,-,N/A,,Clear,120,2013-04-21 09:55:00
6:55 AM,24.1,18.0,77,30.57,10.0,ESE,4.6,-,N/A,,Clear,120,2013-04-21 10:55:00
7:55 AM,28.9,21.0,72,30.59,10.0,ESE,5.8,-,N/A,,Clear,120,2013-04-21 11:55:00
8:55 AM,34.0,21.0,59,30.59,10.0,ESE,12.7,-,N/A,,Clear,120,2013-04-21 12:55:00
9:55 AM,37.9,19.9,48,30.59,10.0,ESE,11.5,-,N/A,,Clear,120,2013-04-21 13:55:00
10:55 AM,41.0,18.0,40,30.61,10.0,SSE,12.7,18.4,N/A,,Clear,150,2013-04-21 14:55:00
11:55 AM,44.1,18.0,35,30.60,10.0,SSE,10.4,17.3,N/A,,Clear,150,2013-04-21 15:55:00
12:55 PM,45.0,19.0,36,30.56,10.0,SE,11.5,-,N/A,,Mostly Cloudy,140,2013-04-21 16:55:00
1:55 PM,46.9,17.1,30,30.54,10.0,SSE,11.5,18.4,N/A,,Overcast,150,2013-04-21 17:55:00
2:55 PM,48.0,17.1,29,30.52,10.0,ESE,10.4,18.4,N/A,,Mostly Cloudy,120,2013-04-21 18:55:00
3:55 PM,48.9,19.0,31,30.48,10.0,SE,12.7,-,N/A,,Mostly Cloudy,140,2013-04-21 19:55:00
4:55 PM,48.9,18.0,29,30.44,10.0,SE,11.5,-,N/A,,Overcast,140,2013-04-21 20:55:00
5:55 PM,52.0,19.9,28,30.42,10.0,SSE,12.7,-,N/A,,Mostly Cloudy,160,2013-04-21 21:55:00
6:55 PM,52.0,23.0,32,30.40,10.0,SE,12.7,-,N/A,,Partly Cloudy,140,2013-04-21 22:55:00
7:55 PM,51.1,23.0,33,30.40,10.0,SE,11.5,-,N/A,,Partly Cloudy,140,2013-04-21 23:55:00
8:55 PM,48.0,25.0,41,30.40,10.0,SSE,8.1,-,N/A,,Partly Cloudy,150,2013-04-22 00:55:00
9:55 PM,46.9,26.1,44,30.41,10.0,SE,9.2,-,N/A,,Partly Cloudy,140,2013-04-22 01:55:00
10:55 PM,46.0,27.0,47,30.40,10.0,SE,10.4,-,N/A,,Partly Cloudy,140,2013-04-22 02:55:00
11:55 PM,44.1,28.0,53,30.40,10.0,SE,8.1,-,N/A,,Clear,140,2013-04-22 03:55:00